Regional Weather Roundup
Issued by NWS

Home | Current Version | Previous Version | Graphics & Text | Print | Product List | Glossary On
Versions: 1 2 3 4 5 6 7 8 9 10 11 12 13 14 15 16 17 18 19 20 21 22 23 24 25 26 27 28 29 30 31 32 33 34 35 36 37 38 39 40 41 42 43 44 45 46 47 48 49 50
000
ASUS43 KMKX 241711
RWRWI

WISCONSIN REGIONAL WEATHER ROUNDUP
NATIONAL WEATHER SERVICE MILWAUKEE/SULLIVAN WI
1200 PM CDT MON APR 24 2017

NOTE: "FAIR" INDICATES FEW OR NO CLOUDS BELOW 12,000 FEET WITH NO
SIGNIFICANT WEATHER AND/OR OBSTRUCTIONS TO VISIBILITY.

WIZ001-002-006>008-014>016-023>028-241800-
NORTHWEST WISCONSIN

CITY           SKY/WX    TMP DP  RH WIND       PRES   REMARKS
SUPERIOR ARPT  MOSUNNY   40  31  68 NE18G29   29.85F WCI  31
ASHLAND        MOSUNNY   45  30  55 NE10G20   29.88F
HAYWARD        CLOUDY    60  33  36 SE10G21   29.80F
SIREN          CLOUDY    61  36  38 S10G21    29.76F
CUMBERLAND     CLOUDY    59  36  41 S17G24    29.79F
RICE LAKE      CLOUDY    60  35  39 SE15      29.82F
CHETEK         CLOUDY    56  37  49 SE14G22   29.82F
LADYSMITH      PTSUNNY   58  35  41 SE15      29.86F
EAU CLAIRE     CLOUDY    63  35  35 SE15      29.82F
MENOMONIE      CLOUDY    66  31  26 S23G30    29.80F
NEW RICHMOND   CLOUDY    64  36  35 S12G17    29.77F
OSCEOLA        CLOUDY    65  39  38 S16G23    29.77F
$$

WIZ003>005-009-010-017-018-241800-
NORTH CENTRAL WISCONSIN

CITY           SKY/WX    TMP DP  RH WIND       PRES   REMARKS
MANITOWISH WTR MOSUNNY   52  32  46 SE12G18   29.88F
ARBOR VITAE    MOSUNNY   57  35  43 S13       29.89F
WOODRUFF       MOSUNNY   57  35  43 S13       29.89F
RHINELANDER    MOSUNNY   58  34  40 S8        29.92F
EAGLE RIVER    MOSUNNY   53  31  43 S7        29.92F
LAND O LAKES   MOSUNNY   53  31  43 S7        29.93F
PHILLIPS       CLOUDY    57  34  41 S13       29.87F
TOMAHAWK       CLOUDY    55  34  45 S3        29.91F
MEDFORD        MOSUNNY   56  38  50 SE13      29.89F
MERRILL        CLOUDY    55  34  45 SE6       29.93F
$$

WIZ029-030-035-036-043>047-241800-
CENTRAL WISCONSIN

CITY           SKY/WX    TMP DP  RH WIND       PRES   REMARKS
WAUSAU         MOSUNNY   58  33  39 S12       29.91F
MOSINEE        PTSUNNY   57  36  44 SE12      29.94F
MARSHFIELD     CLOUDY    59  36  42 S13       29.90F
STEVENS POINT  MOSUNNY   56  33  42 SE8       29.94F
WAUPACA        CLOUDY    59  37  44 SE6       29.97F
WAUTOMA        PTSUNNY   62  36  37 S12       29.95F
WISC RAPIDS    CLOUDY    64  33  31 S12G20    29.92F
CAMP DOUGLAS   CLOUDY    64  36  34 SE12G20   29.90F
$$

WIZ011>013-019>022-031-037>040-048>050-241800-
NORTHEAST WISCONSIN

CITY           SKY/WX    TMP DP  RH WIND       PRES   REMARKS
ANTIGO         CLOUDY    55  34  45 S12       29.95F
SHAWANO        CLOUDY    55  42  61 NE5       29.98F
OCONTO         MOSUNNY   55  40  56 E7        30.00F
STURGEON BAY   CLOUDY    52  40  63 SE12      30.01F
GREEN BAY      MOSUNNY   61  45  55 SE10      29.99F
MANITOWOC      CLOUDY    52  41  66 SE10      30.00F
APPLETON       PTSUNNY   57  36  44 SE6       29.97F
CLINTONVILLE   CLOUDY    54  36  50 SE7       29.98F
OSHKOSH        PTSUNNY   57  44  62 NE8       29.96F
$$

WIZ032>034-041-042-053>061-241800-
SOUTHWEST WISCONSIN

CITY           SKY/WX    TMP DP  RH WIND       PRES   REMARKS
LA CROSSE      CLOUDY    67  36  31 S17       29.85F
SPARTA         MOSUNNY   65  33  30 S15       29.88F
VIROQUA        CLOUDY    64  32  29 S16G22    29.88F
BOSCOBEL       CLOUDY    69  32  25 VRB6      29.89F
PRAIRIE DU CHI CLOUDY    68  27  21 SE14G24   29.87F
PLATTEVILLE    MOSUNNY   68  33  27 S16G22    29.91F
$$

WIZ056-057-062-063-064-067-068-241800-
SOUTH CENTRAL WISCONSIN

CITY           SKY/WX    TMP DP  RH WIND       PRES   REMARKS
REEDSBURG      CLOUDY    63  36  36 SE8       29.92F
BARABOO/DELLS  CLOUDY    63  32  31 S12       29.92F
LONE ROCK      CLOUDY    66  33  29 S16       29.91F
MINERAL POINT  CLOUDY    66  30  26 SE20      29.91F
MADISON        PTSUNNY   64  36  35 S13       29.94F
MIDDLETON      MOSUNNY   67  33  27 S15G22    29.93F
WATERTOWN      SUNNY     67  33  28 S15       29.95F
MONROE         MOSUNNY   66  32  28 SE15G22   29.93F
JANESVILLE     PTSUNNY   70  32  24 S14G20    29.95F
$$

WIZ051-052-058>065-066-070>072-241800-
SOUTHEAST WISCONSIN

CITY           SKY/WX    TMP DP  RH WIND       PRES   REMARKS
MILWAUKEE      MOSUNNY   58  44  60 SE8       29.99F
WAUKESHA       SUNNY     64  36  34 SE14      29.99F
MILWAUKEE/TIMM SUNNY     63  37  39 E7        30.00F
RACINE         SUNNY     59  37  44 S7        30.01F
KENOSHA        SUNNY     63  41  44 SE10      29.99F
FOND DU LAC    MOSUNNY   66  37  34 S13G22    29.96F
SHEBOYGAN      MOSUNNY   58  45  62 S10       29.99F
WEST BEND      SUNNY     64  36  34 S9        29.97F
JUNEAU         SUNNY     65  36  33 S14       29.97F
$$

LSZ147-162-241800-
LAKE SUPERIOR

STATION/POSITION TIME  TEMP    WIND        PRES    WAVE
                       AIR SEA DIR/SP/G            HT/PER
                 (UTC) (F)     (DEG/KT/KT) (MB)    (FT/S)
DEVILS ISLAND    1600   35      70/ 23/ 25 1014.2F
PORT WING        1600   38      30/ 18/ 25 1012.2
SAXON HARBOR     1630   38      40/ 14/ 17 1011.9F
$$

LMZ867-665-643>646-241800-
LAKE MICHIGAN

STATION/POSITION TIME  TEMP    WIND        PRES    WAVE
                       AIR SEA DIR/SP/G            HT/PER
                 (UTC) (F)     (DEG/KT/KT) (MB)    (FT/S)
CHAMBERS ISLAND  1640   41      10/  9/ 11 1016.6F
N MID LAKE BUOY  1650   38 37   80/ 10/ 12 1018.9F   2/ 4
NORTHPORT PIER   1640   39      80/  9/ 13 1017.3F
SISTER BAY       1636   50     110/ 11/ 15   N/A
KEWAUNEE LAKESHO 1648   44     150/  6/  8 1016.0F
SHEBOYGAN LAKESH 1700   44     170/ 12/ 12 1016.1F
PORT WASHINGTON  1630   50     170/  4/  6 1017.3S
MILWAUKEE LAKESH 1650   45      80/  5/  6   N/A
S MID LAKE BUOY  1550   43 41   90/  6/  8 1017.0F   1/ 5
KENOSHA   LAKESH 1700   50     140/  3/  4 1015.6
$$

TC  - TEMPERATURE IN CELSIUS
VSB - VISIBILITY IN STATUTE MILES
WCI - WIND CHILL INDEX
HX  - HEAT INDEX





USA.gov is the U.S. government's official web portal to all federal, state and local government web resources and services.